Details for WeGo Airways at EGGW




Go Back


Latest METAR
Local Time

EGGW 250450Z AUTO 34007KT 3600 -RA OVC003/// //////TCU 11/11 Q1017 RERA

25/05/2018, 06:06:31

Description
Results
WeGo Airways Logo
Number of Pilots based at EGGW
1 Pilots Based here
Number of WeGo Airways Flights Departed from EGGW
1 Flights Departed
Number of WeGo Airways Flights Arrived at EGGW
0 Flights Arrived
Number of WeGo Airways Schedules Departing from EGGW
0 Schedules
Number of WeGo Airways Schedules Arriving at EGGW
0 Schedules
Number of WeGo Airways Schedules Departing from EGGW availible today
0 Schedules Today
Number of WeGo Airways Schedules Arriving at EGGW availible today
0 Schedules Today
Average Landing Rate at EGGW
-207 fpm
WeGo Airways Average Landing Rate at EGGW
0 fpm
Total Fuel Purchased at EGGW by WeGo Airways
17.69 kgs / 39.00 lbs

Pilots Based at EGGW


Pilot ID
Pilot Name
Pilot Rank
No. of Flights
No. of Flying Hours
Jorgen Kambskard
107
315.45
Content